Cloud_Cover
100 100 100 100 100 100 100 100 100 100 100 100 100 100 100 100 100 100 100 100 100 100 100 100 100 100 100 100 100 100 100 100 100 100 95 97 100 100
100 100 100 100 100 100 100 98 90 100 100 100 100 100 100 100 100 100 100 98 80 100 100 100 100 100 100 100 100 100 100 100 100 100 100 100 100 100
100 100 100 100 100 100 100 100 100 100 100 100 100 100 100 100 100 100 97 69 93 100 100 100 100 100 100 100 100 100 100 100 100 100 26 100 100 100
100 100 100 100 100 100 100 100 100 100 100 100 100 100 100 100 93 79 76 100 98 100 100 100 100 100 100 100 100 100 100 100 100 100 100 100 64 92
100 100 100 100 100 97 94 74 82 82 78 86 90 100 97 79 91 96 93 74 100 100 100 100 100 100 100 100 100 100 100 100 100 100 100 99 100 100
9 63 78 66 67 55 40 78 96 88 91 51 70 98 100 100 100 100 100 100 100 100 100 100 100 100 100 100 100 100 100 100 100 100 100 100 100 100
24 4 5 12 92 89 100 96 100 99 100 100 100 100 100 100 100 100 100 100 100 100 100 100 100 100 100 100 100 100 100 100 100 100 100 100 100 100
5 2 0 12 23 84 100 100 100 100 100 100 100 100 100 100 100 100 100 100 100 100 100 100 100 100 100 100 100 100 100 100 100 100 100 100 100 100
37 22 8 24 36 47 96 94 89 100 100 100 100 100 100 100 100 100 100 100 100 100 100 100 100 100 100 100 100 100 100 100 100 100 100 100 100 100
100 100 100 100 100 100 100 100 100 100 100 100 100 100 100 100 100 100 100 100 100 100 100 100 100 100 100 100 100 100 100 100 100 100 100 100 100 100
100 100 100 100 100 100 100 100 100 100 100 100 100 100 100 100 100 100 100 100 100 100 100 100 100 100 100 100 100 100 100 100 100 100 100 100 100 100
100 100 100 100 100 100 100 100 100 100 100 100 100 100 100 100 100 100 100 100 100 100 100 100 97 100 100 100 100 100 100 100 100 100 100 100 100 100
100 100 100 100 100 100 100 100 100 100 100 100 100 100 100 100 100 100 100 100 100 100 100 100 99 100 95 97 100 100 100 100 100 100 100 100 100 100
100 100 100 100 100 100 100 100 100 100 100 100 100 100 100 100 100 100 100 100 100 100 100 100 100 100 94 90 94 100 100 100 100 100 100 100 100 96
100 100 100 100 100 100 100 100 100 100 100 100 100 100 100 100 100 100 100 100 100 100 100 100 100 96 100 100 100 100 100 100 100 100 97 100 100 100
100 100 100 100 100 100 100 100 100 100 100 100 100 100 100 100 100 100 100 100 100 100 100 100 100 100 100 100 100 100 100 100 100 99 100 100 97 62
100 100 100 100 100 100 100 100 100 100 100 100 100 100 100 100 99 100 100 100 100 100 100 100 100 100 100 100 100 100 100 100 100 100 72 87 100 100
100 100 100 100 100 100 100 100 100 100 100 100 100 100 100 98 93 100 100 100 100 100 100 100 100 100 100 100 100 100 100 100 100 75 98 96 65 98
100 100 100 100 100 100 100 100 100 100 100 100 100 100 100 99 100 100 100 100 100 100 100 100 100 100 100 100 100 97 92 99 100 100 100 100 9 5
100 100 100 100 100 100 100 100 100 100 100 100 100 99 100 100 100 100 100 100 99 100 100 100 65 98 100 100 100 66 46 32 5 43 83 49 56 26
100 100 100 100 100 100 100 90 100 100 100 100 100 100 100 100 100 100 100 94 91 100 100 82 28 14 20 8 52 58 21 54 42 97 63 35 8 61
100 100 100 100 100 94 90 100 100 100 100 100 99 92 100 100 100 100 98 100 90 79 25 64 5 5 6 90 80 43 5 1 0 1 34 58 51 98
100 100 100 100 100 100 100 100 100 100 100 100 100 100 100 100 100 100 64 53 99 72 23 82 52 5 5 5 5 5 5 5 5 34 6 81 100 95